Terminal Aerodrome Forecast
Issued by NWS Salt Lake City, UT

Home | Current Version | Previous Version | Text Only | Print | Product List | Glossary On
Versions: 1 2 3 4 5 6 7 8 9 10 11 12 13 14 15 16 17 18 19 20 21 22 23 24 25 26 27 28 29 30 31 32 33 34 35 36 37 38 39 40 41 42 43 44 45 46 47 48 49 50
438
FTUS45 KSLC 112325
TAFSLC
TAF
KSLC 112325Z 1200/1306 33005KT 4SM HZ OVC012
     FM120200 35005KT 2SM BR OVC007
     FM121100 32005KT 1/2SM FZFG VV004
     FM121400 36004KT 2SM BR OVC008=

USA.gov is the U.S. government's official web portal to all federal, state and local government web resources and services.